Flag for Canada Weather past 2 weeks in Red Deer, Alberta, Canada

Now
57 °F

Partly sunny.


Feels Like: 55 °F
Forecast: 45 / 60 °F
Wind: 10 mph from Northeast

Location: Red Deer

Current Time: Aug 21, 2014 at 12:22:17 PM

Latest Report: Aug 21, 2014 at 12:00 PM


Visibility: 15 mi

Pressure: 30.24 "Hg

Humidity: 59%

Dew point: 43 °F

Location of Red DeerLocation

Historic Weather in Red Deer — Graph

°F

Red Deer temperature yesterday

Maximum temperature yesterday: 64 °F (at 2:00 PM)
Minimum temperature yesterday: 50 °F (at 11:00 PM)
Average temperature yesterday: 56 °F

Past Weeks' High & Low Weather Summary

 TemperatureHumidityPressure
High82 °F (Aug 12, 5:00 PM)100% (Aug 7, 6:00 AM)30.24 "Hg (Aug 7, 6:00 AM)
Low43 °F (Aug 9, 5:00 AM)34% (Aug 18, 3:00 PM)29.70 "Hg (Aug 19, 4:00 AM)
Average63 °F77%30.00 "Hg
* Reported Aug 6 11:00 AM — Aug 21 11:00 AM, Red Deer, Weather by CustomWeather, © 2014

Note: Actual official high and low records may vary slightly from our data, if they occured in-between our weather recording intervals... More about our weather records

Advertising

Red Deer weather history for previous 24 hours

 ConditionsComfort  
Time TempWeatherWind HumidityBarometerVisibility
11:00 AM
Aug 21
55 °FPartly sunny.6 mph67%30.23 "Hg12 mi
10:00 AM52 °FPartly sunny.8 mph77%30.23 "Hg10 mi
9:00 AM50 °FPartly sunny.5 mph82%30.22 "Hg8 mi
8:00 AM48 °FPartly sunny.7 mph94%30.20 "Hg8 mi
7:00 AM46 °FLow clouds.3 mph93%30.20 "Hg15 mi
6:49 AM46 °FLow clouds.3 mph93%30.19 "Hg15 mi
6:00 AM46 °FPassing clouds.3 mph93%30.18 "Hg15 mi
5:00 AM46 °FPassing clouds.6 mph93%30.16 "Hg15 mi
4:00 AM46 °FPassing clouds.3 mph93%30.16 "Hg15 mi
3:00 AM46 °FPassing clouds.5 mph93%30.14 "Hg15 mi
2:00 AM48 °FPassing clouds.6 mph87%30.13 "Hg15 mi
1:00 AM48 °FPassing clouds.6 mph87%30.12 "Hg15 mi
12:00 AM50 °FMostly cloudy.6 mph82%30.11 "Hg15 mi
11:00 PM
Aug 20
50 °FPassing clouds.3 mph82%30.09 "Hg15 mi
10:00 PM52 °FPassing clouds.7 mph82%30.08 "Hg15 mi
9:00 PM54 °FPartly sunny.3 mph82%30.06 "Hg15 mi
8:00 PM57 °FPartly sunny.5 mph77%30.04 "Hg15 mi
7:00 PM59 °FPartly sunny.5 mph68%30.02 "Hg15 mi
6:00 PM61 °FBroken clouds.9 mph63%30.00 "Hg15 mi
5:00 PM61 °FOvercast.7 mph63%29.98 "Hg15 mi
4:00 PM61 °FMore clouds than sun.9 mph68%29.97 "Hg15 mi
3:00 PM63 °FPartly sunny.10 mph59%29.95 "Hg15 mi
2:00 PM64 °FBroken clouds.12 mph60%29.95 "Hg15 mi
1:00 PM61 °FPartly sunny.10 mph68%29.94 "Hg15 mi
12:00 PM59 °FMostly cloudy.9 mph72%29.94 "Hg15 mi
Weather by CustomWeather, © 2014

See weather overviewHow to use our weather pages